Location: Nianha
(10.8000°N, 4.6333°W)
Time: 23:39:14
(UTC+00:00)

STARLINK-69 - Pass Details

Date: 14 November 2019
Orbit: 529 x 530 km, 53.0° (Epoch: 20 January)

Event Time Altitude Azimuth Distance (km) Brightness Sun altitude
Exits shadow 04:49:45 63° 276° (W) 596 3.4 -20.6°
Maximum altitude 04:50:03 66° 305° (NW) 582 3.4 -20.5°
Drops below altitude 10° 04:54:04 10° 28° (NNE) 1,785 6.4 -19.5°
Sets 04:56:18 0° 31° (NNE) 2,676 7.3 -19.0°
